Hazen, ND

4:31 AM CDT on October 24, 2017 (GMT -0500)
Mercer County Regional

Weather History for KHZE - May, 2013

Change the Weather History Date:

Tuesday, May 14, 2013

  Actual Average (KN60) Record (KN60)
Temperature  
Mean Temperature 58 °F -  
Max Temperature 71 °F 62 °F 89 °F (2001)
Min Temperature 46 °F 37 °F 26 °F (2014)
Degree Days  
Heating Degree Days 6    
Growing Degree Days 8 (Base 50)    
Moisture  
Dew Point 43 °F    
Average Humidity 50    
Maximum Humidity 94    
Minimum Humidity 27    
Precipitation  
Precipitation 0.06 in - - ()
Sea Level Pressure  
Sea Level Pressure 29.72 in    
Wind  
Wind Speed 14 mph (WNW)    
Max Wind Speed 39 mph    
Max Gust Speed 52 mph    
Visibility 10 miles    
Events Rain , Thunderstorm    
Averages and records for this station are not official NWS values.
T = Trace of Precipitation, MM = Missing Value Source: NWS Daily Summary

Daily Weather History Graph

Daily Weather History Graph

Search for Another Location

Airport or City:

Trip Planner

Search our weather history database for the weather conditions in past years. The results will help you decide how hot, cold, wet, or windy it might be!

Date:

Astronomy

May. 14, 2013 Rise Set
Actual Time 6:10 AM CDT 9:15 PM CDT
Civil Twilight 5:34 AM CDT 9:51 PM CDT
Nautical Twilight 4:47 AM CDT 10:38 PM CDT
Astronomical Twilight 3:50 AM CDT 11:36 PM CDT
Moon 9:53 AM CDT (5/14) 12:24 AM CDT (5/14)
Length of Visible Light 16h 16m
Length of Day
15h 04m
Waxing Crescent, 19% of the Moon is Illuminated
May 14
Waxing Crescent
May 17
First Quarter
May 24
Full
May 31
Last Quarter
Jun 8
New

Hourly Weather History & Observations

Time (CDT) Temp. Windchill Dew Point Humidity Pressure Visibility Wind Dir Wind Speed Gust Speed Precip Events Conditions
12:15 AM 60.8 °F - 44.6 °F 55% 29.67 in 10.0 mi NW 10.4 mph - N/A Thunderstorm Mostly Cloudy
12:35 AM 68.0 °F - 46.4 °F 46% 29.65 in 10.0 mi WSW 5.8 mph - N/A   Overcast
12:55 AM 66.2 °F - 46.4 °F 49% 29.63 in 10.0 mi Calm Calm - N/A   Mostly Cloudy
1:15 AM 66.2 °F - 46.4 °F 49% 29.62 in 10.0 mi SE 8.1 mph - N/A   Mostly Cloudy
1:35 AM 68.0 °F - 46.4 °F 46% 29.60 in 10.0 mi SSE 9.2 mph - N/A   Mostly Cloudy
1:55 AM 69.8 °F - 44.6 °F 40% 29.58 in 10.0 mi SSE 10.4 mph - N/A   Mostly Cloudy
2:15 AM 66.2 °F - 46.4 °F 49% 29.54 in 10.0 mi ESE 10.4 mph - N/A   Mostly Cloudy
2:35 AM 71.6 °F - 46.4 °F 41% 29.52 in 10.0 mi SE 9.2 mph - N/A   Mostly Cloudy
2:55 AM 71.6 °F - 48.2 °F 43% 29.50 in 10.0 mi ESE 9.2 mph - N/A   Mostly Cloudy
3:15 AM 64.4 °F - 50.0 °F 59% 29.54 in 10.0 mi East 6.9 mph - N/A   Scattered Clouds
3:35 AM 66.2 °F - 50.0 °F 56% 29.66 in 8.0 mi WNW 13.8 mph 51.8 mph N/A Thunderstorm Thunderstorm
3:55 AM 62.6 °F - 53.6 °F 72% 29.64 in 5.0 mi North 10.4 mph 19.6 mph 0.06 in Rain , Thunderstorm Light Rain
4:15 AM 60.8 °F - 53.6 °F 77% 29.59 in 10.0 mi ENE 10.4 mph - N/A   Mostly Cloudy
4:35 AM 59.0 °F - 53.6 °F 82% 29.59 in 10.0 mi NE 9.2 mph 16.1 mph N/A   Mostly Cloudy
4:55 AM 59.0 °F - 53.6 °F 82% 29.61 in 10.0 mi NNE 12.7 mph 18.4 mph N/A   Mostly Cloudy
5:15 AM 57.2 °F - 53.6 °F 88% 29.61 in 10.0 mi NE 9.2 mph 16.1 mph N/A   Partly Cloudy
5:35 AM 57.2 °F - 53.6 °F 88% 29.62 in 10.0 mi NE 4.6 mph - N/A   Clear
5:55 AM 55.4 °F - 53.6 °F 94% 29.63 in 10.0 mi SSE 8.1 mph - N/A   Clear
6:15 AM 53.6 °F - 51.8 °F 94% 29.64 in 10.0 mi West 4.6 mph - N/A   Clear
6:35 AM 53.6 °F - 50.0 °F 88% 29.65 in 10.0 mi WSW 5.8 mph - N/A   Clear
6:55 AM 55.4 °F - 53.6 °F 94% 29.66 in 10.0 mi WSW 6.9 mph - N/A   Clear
7:15 AM 55.4 °F - 53.6 °F 94% 29.66 in 10.0 mi WSW 6.9 mph - N/A   Clear
7:35 AM 57.2 °F - 53.6 °F 88% 29.68 in 10.0 mi West 15.0 mph - N/A   Clear
7:55 AM 59.0 °F - 55.4 °F 88% 29.71 in 10.0 mi West 13.8 mph - N/A   Clear
8:15 AM 59.0 °F - 55.4 °F 88% 29.71 in 10.0 mi WSW 10.4 mph - N/A   Partly Cloudy
8:35 AM 62.6 °F - 50.0 °F 63% 29.71 in 10.0 mi West 16.1 mph 26.5 mph N/A   Clear
8:55 AM 62.6 °F - 46.4 °F 55% 29.71 in 10.0 mi WNW 28.8 mph 36.8 mph N/A   Clear
9:15 AM 64.4 °F - 41.0 °F 42% 29.71 in 10.0 mi WNW 28.8 mph 41.4 mph N/A   Clear
9:35 AM 64.4 °F - 37.4 °F 37% 29.71 in 10.0 mi WNW 31.1 mph 43.7 mph N/A   Clear
9:55 AM 64.4 °F - 35.6 °F 34% 29.71 in 10.0 mi WNW 26.5 mph 42.6 mph N/A   Clear
10:15 AM 66.2 °F - 35.6 °F 32% 29.70 in 10.0 mi WNW 26.5 mph 36.8 mph N/A   Clear
10:35 AM 66.2 °F - 35.6 °F 32% 29.71 in 10.0 mi WNW 27.6 mph 38.0 mph N/A   Clear
10:55 AM 68.0 °F - 37.4 °F 33% 29.71 in 10.0 mi WNW 27.6 mph 36.8 mph N/A   Clear
11:15 AM 68.0 °F - 37.4 °F 33% 29.71 in 10.0 mi West 27.6 mph 39.1 mph N/A   Clear
11:35 AM 68.0 °F - 35.6 °F 30% 29.71 in 10.0 mi WNW 28.8 mph 40.3 mph N/A   Clear
11:55 AM 69.8 °F - 35.6 °F 28% 29.71 in 10.0 mi WNW 29.9 mph 47.2 mph N/A   Clear
12:15 PM 71.6 °F - 35.6 °F 27% 29.71 in 10.0 mi West 28.8 mph 44.9 mph N/A   Clear
12:35 PM 71.6 °F - 35.6 °F 27% 29.71 in 10.0 mi WNW 35.7 mph 48.3 mph N/A   Clear
12:55 PM 71.6 °F - 37.4 °F 29% 29.71 in 10.0 mi WNW 34.5 mph 49.5 mph N/A   Clear
1:15 PM 71.6 °F - 37.4 °F 29% 29.72 in 10.0 mi West 34.5 mph 44.9 mph N/A   Clear
1:35 PM 71.6 °F - 39.2 °F 31% 29.73 in 10.0 mi WNW 26.5 mph 44.9 mph N/A   Clear
1:55 PM 69.8 °F - 41.0 °F 35% 29.74 in 10.0 mi NW 31.1 mph 41.4 mph N/A   Partly Cloudy
2:15 PM 68.0 °F - 41.0 °F 37% 29.76 in 10.0 mi NW 39.1 mph 50.6 mph N/A   Partly Cloudy
2:35 PM 68.0 °F - 41.0 °F 37% 29.77 in 10.0 mi NW 28.8 mph 46.0 mph N/A   Partly Cloudy
2:55 PM 68.0 °F - 41.0 °F 37% 29.78 in 10.0 mi NW 26.5 mph 48.3 mph N/A   Clear
3:15 PM 69.8 °F - 41.0 °F 35% 29.78 in 10.0 mi NW 32.2 mph 40.3 mph N/A   Clear
3:35 PM 69.8 °F - 41.0 °F 35% 29.79 in 10.0 mi NW 26.5 mph 39.1 mph N/A   Clear
3:55 PM 68.0 °F - 39.2 °F 35% 29.80 in 10.0 mi NW 23.0 mph 34.5 mph N/A   Partly Cloudy
4:15 PM 69.8 °F - 39.2 °F 33% 29.80 in 10.0 mi NW 24.2 mph 32.2 mph N/A   Clear
4:35 PM 69.8 °F - 39.2 °F 33% 29.79 in 10.0 mi NNW 25.3 mph 35.7 mph N/A   Partly Cloudy
4:55 PM 69.8 °F - 39.2 °F 33% 29.79 in 10.0 mi NNW 20.7 mph 33.4 mph N/A   Partly Cloudy
5:15 PM 71.6 °F - 39.2 °F 31% 29.79 in 10.0 mi NW 18.4 mph 27.6 mph N/A   Clear
5:35 PM 71.6 °F - 39.2 °F 31% 29.80 in 10.0 mi NW 21.9 mph 32.2 mph N/A   Clear
5:55 PM 71.6 °F - 39.2 °F 31% 29.80 in 10.0 mi NW 17.3 mph 28.8 mph N/A   Clear
6:15 PM 71.6 °F - 39.2 °F 31% 29.80 in 10.0 mi NW 16.1 mph 27.6 mph N/A   Clear
6:35 PM 69.8 °F - 37.4 °F 31% 29.80 in 10.0 mi NW 16.1 mph 25.3 mph N/A   Clear
6:55 PM 69.8 °F - 37.4 °F 31% 29.80 in 10.0 mi WNW 15.0 mph 25.3 mph N/A   Clear
7:15 PM 69.8 °F - 37.4 °F 31% 29.80 in 10.0 mi WNW 13.8 mph 18.4 mph N/A   Clear
7:35 PM 68.0 °F - 37.4 °F 33% 29.80 in 10.0 mi WNW 13.8 mph 20.7 mph N/A   Clear
7:55 PM 68.0 °F - 37.4 °F 33% 29.81 in 10.0 mi NW 13.8 mph 17.3 mph N/A   Clear
8:15 PM 68.0 °F - 37.4 °F 33% 29.81 in 10.0 mi WNW 11.5 mph - N/A   Clear
8:35 PM 66.2 °F - 37.4 °F 35% 29.81 in 10.0 mi WNW 6.9 mph - N/A   Clear
8:55 PM 64.4 °F - 39.2 °F 40% 29.81 in 10.0 mi West 5.8 mph - N/A   Clear
9:15 PM 60.8 °F - 39.2 °F 45% 29.82 in 10.0 mi West 6.9 mph - N/A   Clear
9:35 PM 57.2 °F - 39.2 °F 51% 29.83 in 10.0 mi WSW 5.8 mph - N/A   Clear
9:55 PM 53.6 °F - 39.2 °F 58% 29.83 in 10.0 mi SW 6.9 mph - N/A   Clear
10:15 PM 50.0 °F - 39.2 °F 66% 29.84 in 10.0 mi SSW 6.9 mph - N/A   Clear
10:35 PM 53.6 °F - 37.4 °F 54% 29.84 in 10.0 mi SSE 3.5 mph - N/A   Clear
11:15 PM 46.4 °F 44.3 °F 37.4 °F 71% 29.85 in 10.0 mi South 4.6 mph - N/A   Clear
11:35 PM 48.2 °F - 37.4 °F 66% 29.85 in 10.0 mi SW 5.8 mph - N/A   Clear
11:55 PM 50.0 °F - 37.4 °F 62% 29.86 in 10.0 mi Calm Calm - N/A   Clear